RH
3 4 4 4 4 4 4 4 4 4 3 3 3 4 5 5 4 4 2 4 3 3 4 2 13 25 28 36 37 37 36 31 26 26 28 30 32 31 24 21 20 22 22 23 21
4 4 4 4 4 5 6 7 8 8 9 9 7 5 5 6 6 5 6 5 5 5 4 5 5 27 30 34 40 40 37 31 30 29 30 34 33 28 27 26 25 25 26 27 27
4 4 4 5 6 7 7 8 8 8 9 10 11 13 12 8 7 5 6 7 6 6 7 7 10 26 35 36 44 41 39 34 33 34 32 34 37 33 28 28 28 27 28 28 27
5 5 5 6 8 9 8 6 4 4 3 3 3 5 10 14 13 8 16 20 12 8 7 9 15 23 28 33 38 41 35 38 40 38 39 38 37 38 39 35 35 35 34 33 32
6 6 7 7 9 9 5 4 3 3 3 3 3 2 3 6 4 16 17 16 13 13 9 12 24 38 42 39 42 46 39 44 45 48 47 47 46 49 42 42 40 39 38 38 38
8 9 9 10 10 6 4 3 4 5 5 5 5 4 3 2 6 12 19 18 17 16 14 15 30 54 53 54 55 53 50 51 50 47 45 43 44 46 44 49 46 44 43 40 36
10 10 13 13 7 4 4 4 4 6 6 7 8 8 7 4 6 18 24 19 24 22 25 43 59 69 65 68 65 63 62 54 49 47 46 39 32 28 33 38 38 39 36 39 39
11 15 14 8 5 4 4 4 5 7 7 8 9 9 8 8 5 6 33 26 21 24 53 85 97 97 89 77 69 67 69 65 46 47 45 48 31 33 28 31 37 37 37 33 38
16 17 12 6 5 5 5 5 5 8 8 7 10 16 13 16 21 33 25 26 33 30 42 57 85 98 96 86 80 74 65 57 53 43 51 54 47 36 32 36 35 41 38 31 33
19 13 10 7 6 6 5 5 6 7 7 15 24 41 37 62 87 97 55 50 68 65 87 80 79 78 97 88 85 82 87 73 53 48 51 56 55 50 53 54 43 44 51 52 54
20 15 11 10 7 6 6 6 6 8 16 20 31 39 22 84 98 97 92 68 100 100 98 86 78 67 73 85 84 73 82 75 67 61 72 73 71 71 68 68 56 55 55 55 51
21 18 15 9 8 8 11 11 23 50 27 56 78 71 58 37 78 96 89 96 95 96 96 89 79 73 75 75 80 89 92 85 83 84 84 77 68 72 76 75 66 60 58 58 56
22 20 15 8 8 14 12 22 36 66 77 60 89 86 99 61 58 98 98 97 94 96 96 90 83 67 76 86 95 98 99 91 88 79 76 77 72 65 64 65 62 59 56 55 54
23 20 18 9 12 11 16 31 57 75 99 63 90 97 95 96 66 68 98 96 97 96 85 94 94 98 92 89 92 94 88 87 93 95 89 74 75 55 55 56 55 55 53 55 56
25 20 12 12 12 16 22 52 57 79 99 74 79 72 84 85 97 74 97 98 95 71 79 76 74 78 90 86 93 90 84 84 98 98 93 75 70 62 55 45 45 52 51 50 56
24 21 12 18 19 20 31 60 59 72 78 70 65 76 80 86 99 99 73 97 92 96 89 75 93 90 80 93 93 90 92 92 95 95 93 76 71 60 50 44 43 46 44 51 61
24 16 14 19 21 22 42 60 61 70 78 79 71 87 94 82 98 96 92 88 97 98 97 88 91 86 90 88 98 98 94 95 96 94 94 83 78 62 60 67 60 67 66 61 54
21 16 18 29 29 40 58 60 73 83 92 82 70 76 64 83 91 97 91 92 98 79 69 96 99 83 88 94 83 95 85 67 82 99 87 87 93 59 52 59 70 62 58 51 39
23 18 21 36 36 46 68 69 92 96 97 94 57 77 71 86 90 89 96 97 87 74 83 98 88 92 90 86 90 92 94 74 77 98 98 81 76 63 57 62 61 66 62 54 43
18 19 22 34 52 59 66 81 95 98 95 90 96 93 95 90 94 100 97 97 97 93 86 94 93 97 86 86 92 84 76 86 80 100 100 78 70 52 50 54 58 58 60 55 51
16 25 24 43 57 64 84 90 90 98 98 94 97 96 97 96 96 97 97 98 95 93 97 92 90 89 97 93 90 82 82 75 76 77 93 96 66 50 50 55 63 60 46 45 42
19 32 23 28 41 57 88 97 95 97 97 92 86 92 94 95 96 96 96 96 98 99 100 96 94 95 93 82 79 76 70 72 69 94 100 93 68 53 48 48 49 49 44 42 39
29 40 24 52 40 46 76 87 96 94 94 95 85 96 94 92 96 95 94 96 97 97 98 96 94 98 96 93 84 80 77 75 75 83 88 89 67 59 59 60 59 52 46 42 38
48 54 32 31 62 67 69 76 91 97 97 93 92 92 86 96 95 96 94 93 94 92 92 96 78 72 74 72 82 91 81 77 79 88 82 82 66 62 66 67 64 63 60 62 69
65 67 50 40 52 66 74 80 89 92 93 98 96 97 100 99 97 95 96 91 88 98 94 88 80 81 83 93 90 84 83 83 83 81 82 75 74 72 71 78 78 76 78 83 82
68 78 67 46 56 62 64 86 92 93 96 94 98 100 100 98 98 97 88 92 91 88 86 88 77 83 84 84 76 68 69 80 82 85 84 79 75 72 78 84 86 89 88 79 71
77 80 79 60 36 46 86 95 92 94 88 97 97 100 99 100 93 97 95 92 95 94 87 75 80 76 76 85 80 67 65 66 68 71 70 75 70 78 82 80 79 77 78 66 57
Wind_Speed
33 33 34 35 36 37 37 37 36 37 38 39 40 41 40 40 40 38 37 29 28 27 27 25 26 26 26 26 25 26 28 29 28 26 23 15 19 18 21 22 21 21 20 18 12
36 37 37 38 40 41 41 39 38 37 36 37 38 39 41 43 43 41 32 33 31 30 29 29 27 28 29 29 29 28 32 29 25 25 24 15 17 23 23 22 21 20 21 19 18
38 39 39 40 41 41 41 41 40 39 39 38 37 38 38 41 44 42 38 34 32 32 29 28 30 31 31 31 33 33 36 29 23 25 22 22 19 21 25 24 20 17 19 20 18
39 40 41 41 41 40 39 39 41 41 41 41 40 41 40 39 38 26 11 13 16 17 21 25 29 31 35 35 34 35 34 31 28 25 22 23 23 24 24 25 23 20 20 21 17
41 42 42 41 41 40 40 40 40 39 39 39 38 37 39 41 43 33 33 35 34 31 25 22 27 29 33 32 33 36 34 27 24 27 29 29 27 25 27 26 25 24 23 22 22
42 42 42 41 40 40 40 39 39 39 39 36 35 35 36 43 37 33 31 33 32 28 26 26 27 25 22 30 23 27 29 25 26 27 26 28 28 31 32 25 26 28 26 25 24
42 42 41 40 39 40 40 40 40 39 39 37 34 35 38 37 33 30 22 19 18 18 21 20 21 21 26 21 28 26 21 21 29 29 28 25 31 37 26 27 28 29 28 26 24
42 41 40 39 38 40 42 42 40 39 40 38 36 36 42 34 33 28 33 28 26 23 23 22 23 23 23 24 19 27 28 27 28 23 21 19 34 24 19 25 28 28 28 26 26
40 40 39 38 39 42 45 45 43 40 40 39 35 32 33 24 21 17 30 35 31 27 25 24 27 31 29 25 23 22 20 26 27 24 24 25 26 19 24 26 20 18 22 26 27
39 40 40 40 42 44 46 47 45 43 39 26 26 22 19 14 14 12 21 27 29 25 22 23 26 30 35 33 25 20 20 20 20 14 17 20 22 16 10 8 16 23 20 19 23
40 41 42 42 43 45 48 49 48 44 37 31 25 31 31 15 11 10 7 25 28 23 25 25 29 37 38 35 32 16 11 17 15 14 15 15 19 15 16 13 12 14 15 16 17
40 41 43 43 42 42 44 42 35 33 44 16 14 14 17 20 26 13 13 27 28 27 23 24 34 31 26 26 26 28 24 14 11 10 13 14 14 18 21 20 18 18 19 21 21
40 42 43 43 41 40 38 33 30 29 26 14 12 13 14 8 19 15 21 34 27 24 22 25 6 25 27 22 21 23 24 21 17 7 9 10 16 18 22 24 25 24 25 26 25
40 42 43 44 40 39 34 30 26 19 12 18 17 10 14 17 10 23 15 24 24 23 18 15 17 11 20 23 21 19 13 11 16 13 7 10 5 7 18 27 31 30 30 31 28
40 41 41 39 38 35 32 26 17 9 4 12 18 20 20 11 6 5 24 18 15 16 21 12 11 17 20 14 18 16 14 9 11 16 10 9 6 8 22 22 17 15 14 16 23
38 41 40 35 33 30 24 19 14 5 4 11 21 24 14 6 6 4 13 13 26 14 13 13 11 3 17 11 20 19 13 10 8 7 4 13 14 5 12 15 15 16 17 16 16
36 38 36 33 33 30 20 15 6 2 15 16 25 18 17 16 11 12 10 17 12 15 18 15 19 11 11 15 13 15 15 3 1 1 5 3 11 15 6 6 10 11 11 12 13
35 34 31 29 27 24 19 14 2 12 13 19 20 12 14 20 9 7 12 15 20 16 15 14 9 17 14 22 18 22 18 6 6 3 3 5 8 5 14 14 10 11 12 11 12
35 29 26 24 23 19 16 7 6 12 17 20 16 10 16 18 12 7 6 21 21 25 10 15 7 21 19 16 15 21 14 11 4 2 1 4 6 9 9 14 18 14 12 13 14
35 28 23 22 20 19 16 7 12 9 14 11 11 10 17 20 15 14 3 4 15 24 34 10 9 18 22 22 20 15 19 6 6 2 4 4 6 11 6 13 14 13 13 14 15
30 25 22 18 16 16 18 14 12 4 10 9 13 15 14 17 20 8 4 5 11 15 16 10 10 12 14 11 16 17 17 8 10 4 5 1 4 3 9 8 9 11 12 14 17
26 19 22 17 17 16 19 15 11 12 7 7 10 12 12 16 13 8 8 4 7 12 13 13 8 12 13 11 16 19 16 15 6 5 3 2 4 1 5 7 8 11 14 17 20
26 18 21 12 16 19 14 19 17 10 9 11 11 11 13 13 5 8 6 7 8 10 12 15 8 9 5 8 15 17 19 18 16 6 7 5 3 2 6 5 8 12 16 19 22
25 22 21 17 16 18 17 18 20 9 6 11 9 11 10 6 9 8 6 1 3 3 5 8 10 5 8 5 13 16 21 21 18 9 10 18 16 9 11 16 15 17 20 22 26
20 20 20 20 17 15 15 14 19 22 14 7 6 9 9 7 6 7 7 5 3 4 4 4 4 7 8 10 9 12 14 16 19 21 16 20 22 20 21 20 21 24 27 30 32
17 19 20 18 17 16 16 14 18 22 18 8 11 9 7 7 7 5 6 6 3 2 2 4 4 7 8 9 9 11 14 17 19 21 26 28 32 27 28 27 27 31 32 34 34
16 17 19 18 18 17 13 17 20 22 12 12 14 9 7 9 7 8 8 6 5 4 2 2 6 6 5 6 4 7 12 18 18 20 21 26 25 26 28 27 26 26 25 27 28
Wind_Direction
325 324 322 320 319 317 315 311 308 303 299 296 293 290 286 282 277 273 270 273 268 266 266 263 251 241 238 234 230 228 226 232 233 238 242 236 226 213 219 230 230 238 246 249 246
329 327 324 323 322 320 318 315 312 308 304 300 295 291 288 285 281 274 274 263 261 259 257 258 246 240 236 233 232 227 231 235 238 238 244 238 216 211 219 230 235 236 245 251 258
327 324 323 322 320 317 315 313 311 307 303 299 295 292 288 286 285 285 280 270 261 252 245 236 229 229 231 231 231 233 236 232 237 236 236 234 214 213 220 230 235 236 250 260 260
324 323 321 319 318 316 314 313 309 305 302 299 295 289 284 282 281 280 265 227 225 245 238 229 227 226 228 228 230 234 239 239 235 238 238 237 238 226 221 232 237 235 242 250 253
324 323 321 319 317 316 315 313 311 309 308 306 302 297 286 276 279 278 268 259 259 265 250 239 231 228 229 232 233 238 240 239 236 237 239 240 237 239 233 231 238 242 241 249 259
325 324 323 322 320 317 316 315 315 313 311 308 306 301 292 284 283 269 259 252 254 252 244 233 226 227 227 229 233 240 237 231 233 235 239 240 243 243 241 241 245 249 253 253 253
327 326 327 325 320 317 317 317 316 314 310 307 304 300 293 302 284 264 255 225 226 235 240 224 217 212 224 229 232 231 237 231 234 238 242 245 247 246 250 247 246 249 248 247 246
329 329 327 324 320 318 318 316 316 313 307 304 300 298 294 304 285 263 237 231 228 231 223 219 212 217 227 230 231 232 239 238 240 239 240 241 250 248 247 246 250 247 248 246 240
329 330 327 325 322 320 319 317 317 312 308 306 304 298 302 299 289 247 229 234 237 223 222 219 220 220 222 223 232 232 236 239 243 248 245 241 259 269 256 242 244 241 245 236 233
332 331 329 329 325 324 321 319 318 314 312 317 308 297 295 302 285 257 216 215 205 210 214 211 214 216 217 216 218 223 224 238 241 242 243 244 249 249 229 229 225 232 232 222 225
334 333 332 331 328 327 323 320 320 324 317 325 301 285 278 242 260 247 239 191 192 206 211 210 207 212 216 222 230 232 250 256 261 241 236 242 244 227 236 237 229 229 225 221 224
335 334 332 331 331 330 327 330 332 325 323 360 358 343 315 238 247 197 184 187 192 204 208 212 220 221 224 228 232 238 244 246 213 241 242 251 246 215 232 239 239 242 246 250 248
336 334 332 331 332 329 331 336 330 324 318 16 7 1 7 311 252 215 197 183 205 205 210 213 226 226 221 220 223 232 238 238 248 265 248 247 255 232 230 235 241 244 248 249 249
335 333 333 330 332 332 336 338 330 333 317 350 354 353 349 346 279 238 165 207 190 198 202 216 195 144 204 222 223 232 232 223 233 235 246 241 271 235 237 243 247 248 246 245 246
335 333 332 331 334 336 337 338 341 349 349 351 356 347 328 324 312 282 183 204 188 189 199 203 206 231 238 223 207 218 227 228 224 226 238 227 264 252 241 242 239 233 228 229 234
334 332 332 331 335 339 338 333 338 346 282 346 343 352 351 345 246 253 252 225 183 193 212 215 183 250 215 204 195 204 211 190 188 200 254 232 220 244 233 244 237 234 234 231 227
336 333 333 334 338 341 341 334 340 32 324 336 347 360 359 350 239 258 231 215 180 174 203 212 227 240 197 191 189 190 176 77 38 221 220 174 214 230 204 192 199 196 213 218 222
340 334 335 335 340 345 338 328 6 345 342 341 350 1 355 12 0 325 224 216 200 185 197 181 191 189 192 203 199 194 197 171 186 196 246 197 226 237 225 214 193 196 198 215 218
340 336 339 338 341 346 353 29 351 341 339 338 351 346 354 356 3 352 216 214 214 211 210 191 171 181 186 198 189 180 199 211 113 148 292 221 256 255 232 213 219 218 213 217 225
341 341 342 343 346 350 350 13 337 342 336 348 342 339 333 346 350 334 251 261 214 218 216 196 150 188 185 187 196 189 206 172 189 131 234 286 259 245 221 210 196 211 224 230 235
345 342 348 347 352 351 13 360 346 20 348 344 335 333 331 337 348 7 84 63 228 215 219 174 178 170 174 181 186 175 185 184 182 193 162 226 263 257 227 207 207 221 230 243 249
350 347 348 340 338 7 8 1 352 356 357 2 334 333 334 340 358 23 33 60 147 204 200 167 157 147 178 187 195 209 205 198 179 186 181 129 281 221 149 180 205 233 242 249 257
350 354 354 1 352 357 3 358 355 338 355 338 338 334 334 335 351 8 22 25 46 128 154 160 157 119 136 205 203 207 209 212 218 239 208 153 245 217 237 247 249 250 254 259 263
346 349 355 357 355 356 349 353 349 359 358 335 330 330 329 339 335 343 4 92 71 101 151 169 175 176 187 175 182 200 211 214 221 225 235 233 246 252 284 293 277 267 264 270 276
345 344 343 345 351 352 342 340 345 349 346 349 348 338 358 336 333 360 359 37 71 128 153 176 180 172 149 150 156 190 209 216 224 236 239 262 263 265 273 275 271 271 272 278 286
336 333 330 341 346 339 343 342 345 339 338 313 336 337 351 336 10 331 343 355 351 4 222 220 206 187 190 213 230 229 220 226 235 241 250 259 265 268 273 276 273 273 277 283 287
327 327 324 331 342 338 344 338 334 336 332 332 324 327 294 297 307 288 303 308 294 291 295 215 206 187 193 202 240 269 239 236 247 256 262 263 275 274 275 277 275 276 278 280 283